User: anonymous   Login
Location: ActonStarParty
(42.4766°N, 71.4538°W)
Time: 07:10:44
(UTC-04:00)
Language:

Cosmos 1300 - Orbit

View from above orbital plane
View from above orbital plane
View from above satellite
View from above satellite

Ground track
Ground track

The orbit data is extracted from the following two-line orbital elements,

1 12785U 81082A   16211.54668343  .00000564  00000-0  27590-4 0  9994
2 12785  82.5029  32.0938 0000527  58.1789   1.5155 15.16169903902951
Epoch (UTC): 29 July 2016 13:07:13
Eccentricity: 0.0000527
inclination: 82.5029°
perigee height: 517 km
apogee height: 518 km
right ascension of ascending node: 32.0938°
argument of perigee: 58.1789°
revolutions per day: 15.16169903
mean anomaly at epoch: 1.5155°
orbit number at epoch: 90295

The dashed part of the orbit path shows where the satellite is in the earth's shadow,  

DLR